This demonstration page uses our WeatherBlox Daily Observations layout. Learn more.

Left ArrowRight Arrow

Hourly Observations for January 13, 2022

Temp ( °F °C ) Dew Point ( °F °C ) Humidity (%) Winds ( mph kmh ) Pressure ( in mb ) Visibility ( mi km ) Precip ( " mm )
12:54 am 00:54 Clear 40 4.4 24 -4.4 53 53 W 5 7 30.01 1016 10 16 0.00 0.00
1:54 am 01:54 Mostly Clear 34 1.1 22 -5.6 61 61 Calm 30.02 1017 10 16 0.00 0.00
2:54 am 02:54 Clear 37 2.8 24 -4.4 59 59 VRB 5 7 30.02 1017 10 16 0.00 0.00
3:54 am 03:54 Clear 43 6.1 26 -3.3 51 51 NW 8 13 30.02 1017 10 16 0.00 0.00
4:54 am 04:54 Clear 43 6.1 27 -2.8 53 53 WNW 12 19 30.03 1017 10 16 0.00 0.00
5:54 am 05:54 Clear 42 5.6 27 -2.8 55 55 NW 12 19 30.06 1018 10 16 0.00 0.00
6:54 am 06:54 Clear 41 5 28 -2.2 60 60 WNW 12 19 30.08 1019 10 16 0.00 0.00
7:54 am 07:54 Sunny 38 3.3 28 -2.2 68 68 NNW 9 15 30.10 1019 10 16 0.00 0.00
8:54 am 08:54 Sunny 41 5 29 -1.7 62 62 NW 14 22 30.11 1020 10 16 0.00 0.00
9:54 am 09:54 Sunny 44 6.7 30 -1.1 58 58 NNW 16 26 30.14 1021 10 16 0.00 0.00
10:54 am 10:54 Sunny 48 8.9 32 0 54 54 NW 12 19 30.15 1021 10 16 0.00 0.00
11:54 am 11:54 Sunny 52 11.1 31 -0.6 45 45 N 13 20 30.13 1020 10 16 0.00 0.00
12:54 pm 12:54 Sunny 55 12.8 31 -0.6 40 40 NNW 14 22 30.10 1019 10 16 0.00 0.00
1:54 pm 13:54 Sunny 56 13.3 32 0 40 40 NNW 10 17 30.10 1019 10 16 0.00 0.00
2:54 pm 14:54 Sunny 56 13.3 31 -0.6 39 39 NW 7 11 30.09 1019 10 16 0.00 0.00
3:54 pm 15:54 Sunny 56 13.3 31 -0.6 39 39 NNW 6 9 30.09 1019 10 16 0.00 0.00
4:54 pm 16:54 Sunny 49 9.4 28 -2.2 44 44 N 7 11 30.09 1019 10 16 0.00 0.00
5:54 pm 17:54 Clear 43 6.1 27 -2.8 53 53 NNE 3 6 30.10 1019 9 14 0.00 0.00
6:54 pm 18:54 Clear 39 3.9 26 -3.3 60 60 Calm 30.12 1020 10 16 0.00 0.00
7:54 pm 19:54 Clear 39 3.9 27 -2.8 62 62 Calm 30.11 1020 10 16 0.00 0.00
8:54 pm 20:54 Clear 29 -1.7 22 -5.6 75 75 Calm 30.10 1019 10 16 0.00 0.00
9:54 pm 21:54 Clear 30 -1.1 21 -6.1 69 69 Calm 30.09 1019 9 14 0.00 0.00
10:54 pm 22:54 Clear 30 -1.1 22 -5.6 72 72 Calm 30.07 1018 10 16 0.00 0.00
11:54 pm 23:54 Clear 30 -1.1 23 -5 75 75 N 5 7 30.06 1018 10 16 0.00 0.00

Powered by AerisWeather